When you browse on this site, cookies collect data to enhance your experience and personalize the content and advertising you see.
Visit our Privacy Policy to learn more. By continuing to use the site, you agree to this use of cookies and data.
  • In Sweden
  • List of Countries
  • For 7 days
  • Water Temperature
  • Weather Map
  • Weather Widgets
  • user-avatar
    Login

    Hourly Weather Porto Velho

    Today, 8 April, Wednesday

    Time Temperature Precipitation Wind Pressure Humidity
    00:00 +25°C° 0 mm 1 mps 752 mmHg 97%
    01:00 +25°C° 0 mm 1 mps 751 mmHg 98%
    02:00 +25°C° 0 mm 1 mps 751 mmHg 98%
    03:00 +25°C° 0 mm 1 mps 750 mmHg 98%
    04:00 +25°C° 0 mm 1 mps 750 mmHg 98%
    05:00 +25°C° 0 mm 1 mps 750 mmHg 98%
    06:00 +25°C° 0 mm 1 mps 751 mmHg 96%
    07:00 +25°C° 0 mm 1 mps 752 mmHg 94%
    08:00 +26°C° 0 mm 2 mps 752 mmHg 91%
    09:00 +28°C° 0 mm 2 mps 752 mmHg 82%
    10:00 +30°C° 0 mm 1 mps 752 mmHg 73%
    11:00 +32°C° 0 mm 1 mps 752 mmHg 63%
    12:00 +33°C° 0 mm 1 mps 751 mmHg 59%
    13:00 +34°C° 0 mm 1 mps 750 mmHg 55%
    14:00 +35°C° 0 mm 1 mps 749 mmHg 50%
    15:00 +35°C° 0 mm 1 mps 749 mmHg 55%
    16:00 +34°C° 0 mm 1 mps 748 mmHg 60%
    17:00 +33°C° 0 mm 1 mps 748 mmHg 65%
    18:00 +31°C° 0 mm 1 mps 749 mmHg 71%
    19:00 +28°C° 0 mm 0 mps 749 mmHg 77%
    20:00 +26°C° 0 mm 0 mps 750 mmHg 83%
    21:00 +25°C° 1.3 mm 0 mps 750 mmHg 87%
    22:00 +25°C° 1.3 mm 0 mps 751 mmHg 91%
    23:00 +24°C° 1.3 mm 0 mps 751 mmHg 95%

    Tomorrow, 9 April, Thursday

    Time Temperature Precipitation Wind Pressure Humidity
    00:00 +24°C° 0.9 mm 0 mps 751 mmHg 96%
    01:00 +24°C° 0.9 mm 0 mps 751 mmHg 97%
    02:00 +23°C° 0.9 mm 0 mps 750 mmHg 99%
    03:00 +23°C° 0.1 mm 0 mps 750 mmHg 99%
    04:00 +23°C° 0.1 mm 0 mps 750 mmHg 99%
    05:00 +23°C° 0.1 mm 0 mps 750 mmHg 99%
    06:00 +23°C° 0 mm 0 mps 750 mmHg 98%
    07:00 +24°C° 0 mm 0 mps 751 mmHg 97%
    08:00 +25°C° 0 mm 0 mps 752 mmHg 95%
    09:00 +27°C° 0.1 mm 0 mps 752 mmHg 86%
    10:00 +29°C° 0.1 mm 0 mps 751 mmHg 76%
    11:00 +31°C° 0.1 mm 0 mps 751 mmHg 67%
    12:00 +32°C° 0 mm 0 mps 750 mmHg 62%
    13:00 +33°C° 0 mm 0 mps 749 mmHg 58%
    14:00 +34°C° 0 mm 0 mps 748 mmHg 54%
    15:00 +32°C° 0.4 mm 0 mps 748 mmHg 61%
    16:00 +31°C° 0.4 mm 0 mps 748 mmHg 68%
    17:00 +30°C° 0.4 mm 0 mps 747 mmHg 76%
    18:00 +28°C° 1.2 mm 0 mps 748 mmHg 82%
    19:00 +29°C° 1.2 mm 1 mps 748 mmHg 89%
    20:00 +27°C° 1.2 mm 1 mps 749 mmHg 96%
    21:00 +27°C° 1 mm 1 mps 749 mmHg 96%
    22:00 +26°C° 1 mm 1 mps 750 mmHg 97%
    23:00 +24°C° 1 mm 0 mps 750 mmHg 97%

    Day after tomorrow, 10 April, Friday

    Time Temperature Precipitation Wind Pressure Humidity
    00:00 +24°C° 1.2 mm 0 mps 750 mmHg 97%
    01:00 +24°C° 1.2 mm 0 mps 750 mmHg 98%
    02:00 +24°C° 1.2 mm 0 mps 750 mmHg 98%
    03:00 +24°C° 3.1 mm 0 mps 749 mmHg 98%
    04:00 +26°C° 3.1 mm 1 mps 749 mmHg 98%
    05:00 +25°C° 3.1 mm 1 mps 749 mmHg 99%
    06:00 +25°C° 5.8 mm 1 mps 750 mmHg 99%
    07:00 +25°C° 5.8 mm 1 mps 751 mmHg 99%
    08:00 +25°C° 5.8 mm 1 mps 751 mmHg 99%
    09:00 +26°C° 1.7 mm 1 mps 752 mmHg 98%
    10:00 +26°C° 1.7 mm 1 mps 752 mmHg 97%
    11:00 +24°C° 1.7 mm 0 mps 752 mmHg 97%
    12:00 +25°C° 0.2 mm 0 mps 751 mmHg 94%
    13:00 +25°C° 0.2 mm 0 mps 751 mmHg 92%
    14:00 +26°C° 0.2 mm 0 mps 750 mmHg 89%
    15:00 +26°C° 0.2 mm 0 mps 750 mmHg 91%
    16:00 +25°C° 0.2 mm 0 mps 749 mmHg 93%
    17:00 +25°C° 0.2 mm 0 mps 749 mmHg 94%
    18:00 +25°C° 0 mm 0 mps 749 mmHg 95%
    19:00 +24°C° 0 mm 0 mps 749 mmHg 97%
    20:00 +24°C° 0 mm 0 mps 750 mmHg 98%
    21:00 +24°C° 0 mm 0 mps 750 mmHg 98%
    22:00 +24°C° 0 mm 0 mps 750 mmHg 98%
    23:00 +23°C° 0 mm 0 mps 751 mmHg 98%

    11 April, Saturday

    Time Temperature Precipitation Wind Pressure Humidity
    00:00 +23°C° 0.1 mm 0 mps 751 mmHg 98%
    01:00 +23°C° 0.1 mm 0 mps 750 mmHg 99%
    02:00 +23°C° 0.1 mm 0 mps 750 mmHg 99%
    03:00 +23°C° 0.3 mm 0 mps 750 mmHg 99%
    04:00 +23°C° 0.3 mm 0 mps 750 mmHg 99%
    05:00 +23°C° 0.3 mm 0 mps 750 mmHg 99%
    06:00 +23°C° 0 mm 0 mps 751 mmHg 97%
    07:00 +24°C° 0 mm 0 mps 751 mmHg 95%
    08:00 +24°C° 0 mm 0 mps 752 mmHg 94%
    09:00 +26°C° 0 mm 0 mps 752 mmHg 86%
    10:00 +28°C° 0 mm 0 mps 752 mmHg 78%
    11:00 +29°C° 0 mm 0 mps 752 mmHg 70%
    12:00 +30°C° 1.2 mm 0 mps 751 mmHg 70%
    13:00 +31°C° 1.2 mm 0 mps 750 mmHg 69%
    14:00 +31°C° 1.2 mm 0 mps 749 mmHg 69%
    15:00 +30°C° 1.3 mm 0 mps 749 mmHg 75%
    16:00 +31°C° 1.3 mm 1 mps 749 mmHg 82%
    17:00 +29°C° 1.3 mm 1 mps 748 mmHg 88%
    18:00 +28°C° 2.3 mm 1 mps 749 mmHg 91%
    19:00 +27°C° 2.3 mm 1 mps 750 mmHg 94%
    20:00 +26°C° 2.3 mm 1 mps 750 mmHg 97%
    21:00 +26°C° 4.7 mm 2 mps 751 mmHg 98%
    22:00 +26°C° 4.7 mm 2 mps 751 mmHg 98%
    23:00 +26°C° 4.7 mm 2 mps 752 mmHg 99%

    12 April, Sunday

    Time Temperature Precipitation Wind Pressure Humidity
    00:00 +25°C° 5 mm 2 mps 751 mmHg 99%
    01:00 +25°C° 5 mm 2 mps 751 mmHg 99%
    02:00 +25°C° 5 mm 2 mps 751 mmHg 99%
    03:00 +25°C° 5.2 mm 1 mps 751 mmHg 99%
    04:00 +25°C° 5.2 mm 1 mps 751 mmHg 99%
    05:00 +25°C° 5.2 mm 1 mps 751 mmHg 99%
    06:00 +25°C° 4.4 mm 1 mps 751 mmHg 99%
    07:00 +24°C° 4.4 mm 1 mps 752 mmHg 99%
    08:00 +24°C° 4.4 mm 1 mps 753 mmHg 99%
    09:00 +25°C° 3.3 mm 1 mps 753 mmHg 99%
    10:00 +25°C° 3.3 mm 1 mps 754 mmHg 99%
    11:00 +25°C° 3.3 mm 1 mps 754 mmHg 99%
    12:00 +25°C° 0.6 mm 1 mps 753 mmHg 98%
    13:00 +23°C° 0.6 mm 0 mps 753 mmHg 98%
    14:00 +23°C° 0.6 mm 0 mps 752 mmHg 98%
    15:00 +25°C° 0.1 mm 1 mps 751 mmHg 98%
    16:00 +25°C° 0.1 mm 1 mps 751 mmHg 98%
    17:00 +25°C° 0.1 mm 1 mps 750 mmHg 98%
    18:00 +25°C° 0 mm 1 mps 750 mmHg 98%
    19:00 +24°C° 0 mm 1 mps 751 mmHg 99%
    20:00 +24°C° 0 mm 1 mps 751 mmHg 99%
    21:00 +22°C° 0 mm 0 mps 751 mmHg 99%
    22:00 +22°C° 0 mm 0 mps 751 mmHg 99%
    23:00 +22°C° 0 mm 0 mps 752 mmHg 99%

    13 April, Monday

    Time Temperature Precipitation Wind Pressure Humidity
    00:00 +22°C° 0 mm 0 mps 751 mmHg 99%
    01:00 +22°C° 0 mm 0 mps 751 mmHg 99%
    02:00 +22°C° 0 mm 0 mps 751 mmHg 99%
    03:00 +22°C° 0 mm 0 mps 751 mmHg 99%
    04:00 +22°C° 0 mm 0 mps 750 mmHg 99%
    05:00 +22°C° 0 mm 0 mps 750 mmHg 99%
    06:00 +22°C° 0 mm 0 mps 751 mmHg 97%
    07:00 +23°C° 0 mm 0 mps 751 mmHg 96%
    08:00 +24°C° 0 mm 0 mps 752 mmHg 94%
    09:00 +26°C° 0 mm 0 mps 752 mmHg 82%
    10:00 +28°C° 0 mm 0 mps 752 mmHg 71%
    11:00 +33°C° 0 mm 1 mps 752 mmHg 59%
    12:00 +33°C° 0.5 mm 1 mps 751 mmHg 65%
    13:00 +32°C° 0.5 mm 1 mps 750 mmHg 71%
    14:00 +32°C° 0.5 mm 1 mps 749 mmHg 77%
    15:00 +31°C° 0.8 mm 1 mps 748 mmHg 81%
    16:00 +31°C° 0.8 mm 1 mps 748 mmHg 85%
    17:00 +30°C° 0.8 mm 1 mps 747 mmHg 89%
    18:00 +26°C° 0.1 mm 0 mps 748 mmHg 91%
    19:00 +25°C° 0.1 mm 0 mps 749 mmHg 93%
    20:00 +24°C° 0.1 mm 0 mps 749 mmHg 95%
    21:00 +24°C° 0.1 mm 0 mps 749 mmHg 96%
    22:00 +23°C° 0.1 mm 0 mps 750 mmHg 96%
    23:00 +23°C° 0.1 mm 0 mps 750 mmHg 97%
    Show more